Regional Weather Roundup
Issued by NWS

Home | Current Version | Previous Version | Graphics & Text | Print | Product List | Glossary On
Versions: 1 2 3 4 5 6 7 8 9 10 11 12 13 14 15 16 17 18 19 20 21 22 23 24 25 26 27 28 29 30 31 32 33 34 35 36 37 38 39 40 41 42 43 44 45 46 47 48 49 50
000
ASUS43 KFSD 011510
RWRSD

WEATHER ROUNDUP FOR SOUTH DAKOTA
NATIONAL WEATHER SERVICE SIOUX FALLS SD
1000 AM CDT SUN MAY 01 2016

NOTE: "FAIR" INDICATES FEW OR NO CLOUDS BELOW 12,000 FEET WITH NO
SIGNIFICANT WEATHER AND/OR OBSTRUCTIONS TO VISIBILITY.


SDZ001>005-009-010-012>017-011600-
NORTHWEST AND NORTH CENTRAL SOUTH DAKOTA

CITY           SKY/WX    TMP DP  RH WIND       PRES   REMARKS
BUFFALO          N/A     51  27  39 N6        30.27S
FAITH            N/A     47  30  51 VRB6      30.32R
MOBRIDGE       SUNNY     50  34  54 N8        30.29R
$$

SDZ012>016-024>037-041>051-057-063-072>074-011600-
SOUTHWEST AND SOUTH CENTRAL SOUTH DAKOTA

CITY           SKY/WX    TMP DP  RH WIND       PRES   REMARKS
RAPID CTY ARPT SUNNY     48  31  51 N16       30.33R
PIERRE         SUNNY     48  34  58 N10       30.28R
CUSTER         SUNNY     39  22  50 N13G24    30.29R
ELLSWORTH AFB  SUNNY     47  29  47 N13       30.33R
PHILIP         SUNNY     49  34  56 N10       30.30S
PINE RIDGE     SUNNY     44  31  60 NW9       30.30R
WINNER         FAIR      48  37  65 N13       30.26R
$$

SDZ004>011-016>023-039-040-011600-
NORTHEAST SOUTH DAKOTA

CITY           SKY/WX    TMP DP  RH WIND       PRES   REMARKS
ABERDEEN       SUNNY     51  32  48 N13       30.29S
WATERTOWN      SUNNY     46  32  58 NE15      30.22S
BROOKINGS      SUNNY     43  33  68 N13       30.19S
SISSETON         N/A     50  31  48 E13G20    30.26S
$$

SDZ017-020-022-023-036>040-048>070-011600-
SOUTHEAST SOUTH DAKOTA

CITY           SKY/WX    TMP DP  RH WIND       PRES   REMARKS
SIOUX FALLS    PTSUNNY   42  36  79 N10       30.19R
HURON          SUNNY     47  34  60 N13       30.24S
CHAMBERLAIN    SUNNY     47  37  67 N13       30.25S
MITCHELL       SUNNY     46  37  71 N12       30.23R
YANKTON        CLOUDY    43  36  75 N15       30.18R
$$

ABBREVIATIONS USED IN REMARKS
   TC - TEMPERATURE IN CELSIUS
  WCI - WIND CHILL INDEX
   HX - HEAT INDEX
  VSB - VISIBILITY





USA.gov is the U.S. government's official web portal to all federal, state and local government web resources and services.